Content
SEND FEEDBACK

Daily
Averages
Monthly
Summary
Mexico

CANCUN, QUINTANA ROO


Home > North America > Mexico > Quintana Roo
Elevation: 30 feet     Latitude: 21 09N     Longitude: 086 49W

WEATHER
 
SELECT A DAY
Number of Records: 166,596;   Date Range: 1/1/95 - 10/30/14
 
SHARE

PRINT THIS DATA

[ ← Previous Day ]
WEATHER ALMANAC - FEBRUARY 6, 2013
[ Next Day → ]
[ °C ]   °F
Weather ElementAverageHighLow
Temperature78 °F82.4 °F (10:52 am)73.4 °F (2:42 am)
Dewpoint68.1 °F71.6 °F (7:40 pm)66.2 °F (2:42 am)
Humidity71.7 %83 % (7:40 pm)58 % (12:47 pm)
Barometer30.00 in30.07 in (9:43 am)29.95 in (2:42 am)
Wind Speed8.6 mph13.8 mph (1:41 pm)
Weather ElementAverage
Visibility7 mi
Wind DirectionESE (124.3 °)

Weather ElementTotal
Precipitation---
Cooling Degree Days12.9 (Base 65)
Growing Degree Days27.9 (Base 50)
Averaged from 23 records on February 6, 2013
WEATHER CONDITIONS BREAKOUT
WIND DIRECTION BREAKOUT
WEATHER BY HOUR - FEBRUARY 6, 2013
[ °C ]   °F
Local TimeTemperatureDewpointHumidityBarometerVisibilityWind DirectionWind SpeedGust SpeedPrecipitationEventsConditions
1:40 AM75.2 °F68.0 °F78 %29.97 in7.0 miESE (120°)5.8 mphScattered Clouds
2:42 AM73.4 °F66.2 °F78 %29.95 in7.0 miESE (120°)5.8 mphScattered Clouds
3:42 AM75.2 °F66.2 °F73 %29.96 in7.0 miESE (120°)5.8 mphScattered Clouds
4:40 AM75.2 °F66.2 °F73 %29.97 in7.0 miSE (130°)5.8 mphScattered Clouds
5:43 AM73.4 °F66.2 °F78 %29.98 in7.0 miSE (130°)5.8 mphScattered Clouds
6:40 AM73.4 °F66.2 °F78 %30.01 in7.0 miESE (120°)4.6 mphScattered Clouds
7:44 AM78.8 °F68.0 °F69 %30.04 in7.0 miSE (130°)10.4 mphScattered Clouds
8:43 AM80.6 °F68.0 °F65 %30.06 in7.0 miSE (130°)9.2 mphScattered Clouds
9:43 AM80.6 °F66.2 °F61 %30.07 in7.0 miESE (110°)11.5 mphScattered Clouds
10:52 AM82.4 °F68.0 °F62 %30.06 in7.0 miEast (100°)6.9 mphMostly Cloudy
11:49 AM82.4 °F68.0 °F62 %30.04 in7.0 miESE (110°)9.2 mphScattered Clouds
12:47 PM82.4 °F66.2 °F58 %30.01 in7.0 miSE (140°)12.7 mphScattered Clouds
1:41 PM82.4 °F66.2 °F58 %29.98 in7.0 miSSE (150°)13.8 mphScattered Clouds
2:46 PM80.6 °F66.2 °F61 %29.98 in7.0 miSE (140°)10.4 mphMostly Cloudy
3:43 PM80.6 °F68.0 °F65 %29.97 in7.0 miESE (120°)9.2 mphMostly Cloudy
4:45 PM78.8 °F68.0 °F69 %29.96 in7.0 miESE (120°)6.9 mphScattered Clouds
5:42 PM77.0 °F69.8 °F78 %29.97 in7.0 miESE (120°)8.1 mphMostly Cloudy
6:43 PM77.0 °F69.8 °F78 %29.97 in7.0 miESE (120°)5.8 mphScattered Clouds
7:40 PM77.0 °F71.6 °F83 %29.99 in7.0 miESE (110°)6.9 mphPartly Cloudy
8:45 PM77.0 °F71.6 °F83 %29.99 in7.0 miESE (120°)9.2 mphPartly Cloudy
9:48 PM77.0 °F71.6 °F83 %30.00 in7.0 miSE (130°)10.4 mphPartly Cloudy
10:47 PM77.0 °F69.8 °F78 %30.00 in7.0 miSE (130°)13.8 mphClear
11:46 PM77.0 °F69.8 °F78 %29.97 in7.0 miSE (140°)9.2 mphClear
Hourly data recorded from MMUN, located miles away from Cancun, Quintana Roo







STORIES FROM OUR PARTNERS